Regional Weather Roundup
Issued by NWS

Home | Current Version | Previous Version | Text Only | Print | Product List | Glossary Off
Versions: 1 2 3 4 5 6 7 8 9 10 11 12 13 14 15 16 17 18 19 20 21 22 23 24 25 26 27 28 29 30 31 32 33 34 35 36 37 38 39 40 41 42 43 44 45 46 47 48 49 50

000
ASUS43 KDTX 190301
RWRMI
MICHIGAN HOURLY REGIONAL WEATHER ROUNDUP
NATIONAL WEATHER SERVICE DETROIT/PONTIAC MI
1000 PM EST THU DEC 18 2014

NOTE: "FAIR" INDICATES FEW OR NO CLOUDS BELOW 12,000 FEET WITH NO
SIGNIFICANT WEATHER AND/OR OBSTRUCTION TO VISIBILITY.

MIZ047>049-052>055-059>063-066>070-074>076-081>083-190400-
SOUTHEAST LOWER MICHIGAN

CITY           SKY/WX    TMP DP  RH WIND       PRES   REMARKS
ADRIAN         CLOUDY    29  26  89 NW9       30.20S WCI  20
ALMA           CLOUDY    27  23  84 CALM      30.21S
ANN ARBOR      CLOUDY    30  28  92 W10       30.17S FOG     WCI  21
BAD AXE        CLOUDY    26  24  91 NW6       30.17S WCI  20
CARO           CLOUDY    26  22  86 N8        30.19S WCI  17
DETROIT CITY   CLOUDY    33  28  81 N3        30.18R
DETROIT        FRZ DRZL  31  29  92 N6        30.18S WCI  25
FLINT          CLOUDY    28  24  85 N8        30.19S WCI  20
GROSSE ILE     CLOUDY    32  28  86 W3        30.16S FOG
HILLSDALE      CLOUDY    28  27  98 W7        30.17S FOG     WCI  21
HOWELL         CLOUDY    28  28  96 CALM      30.17R

CITY           SKY/WX    TMP DP  RH WIND       PRES   REMARKS
JACKSON        CLOUDY    28  26  92 W7        30.18R FOG     WCI  21
LAMBERTVILLE   CLOUDY    32  28  86 W7        30.20R WCI  26
LANSING        CLOUDY    29  26  89 N6        30.19S WCI  23
LAPEER         CLOUDY    26  24  93 N7        30.18S WCI  18
MASON          MIX PCPN  29  28  94 NW5       30.18S WCI  24
MONROE         CLOUDY    30  28  93 W7        30.17S FOG     WCI  23
MT. CLEMENS    CLOUDY    28  28  99 N10       30.16S WCI  19
PONTIAC        FRZ DRZL  28  25  88 N6        30.15S WCI  22
PORT HOPE        N/A     30  23  75 N5G18     30.16S WCI  25
PORT HURON     CLOUDY    27  23  86 NW6       30.18S WCI  20
TRI CITIES     CLOUDY    28  21  75 NE5       30.21S WCI  23
TROY           CLOUDY    32  27  83 N8        30.19R WCI  25
SAGINAW HB     CLOUDY    28  23  80 N7        30.21R WCI  21
$$
MIZ043>046-050>051-056>058-064>065-071>073-077>080-190400-
SOUTHWEST LOWER MICHIGAN

CITY           SKY/WX    TMP DP  RH WIND       PRES   REMARKS
BATTLE CREEK   CLOUDY    28  24  85 W10       30.19S FOG     WCI  19
BENTON HARBOR  MIX PCPN  30  30 100 W13       30.21S FOG     WCI  20
BIG RAPIDS     CLOUDY    26  22  85 CALM      30.19S
COLDWATER      CLOUDY    27  26  95 W5        30.19S FOG     WCI  22
FREMONT        CLOUDY    28  20  72 N7        30.21R WCI  20
HOLLAND        CLOUDY    32  26  78 NW3       30.20S
GRAND RAPIDS   CLOUDY    30  23  75 N6        30.19S WCI  24
IONIA          CLOUDY    30  26  84 NE6       30.18S WCI  24
KALAMAZOO      CLOUDY    28  23  81 SW10      30.19S WCI  19
LUDINGTON      CLEAR     22  18  86 CALM      30.24R
MARSHALL       CLOUDY    27  26  94 W3        30.18S FOG
MOUNT PLEASANT CLOUDY    27  21  77 N5        30.20R WCI  22
MUSKEGON       CLOUDY    30  22  72 N7        30.23R WCI  23
SOUTH HAVEN    CLOUDY    32  29  89 N6        30.20S WCI  27
$$
MIZ016>042-190400-
NORTHERN LOWER MICHIGAN

CITY           SKY/WX    TMP DP  RH WIND       PRES   REMARKS
ALPENA         CLEAR     16  13  88 W5        30.21S WCI   9
BEAVER ISLAND  CLEAR     14  13  95 CALM      30.24S
BELLAIRE         N/A     14  12  92 CALM      30.24S FOG
CADILLAC       CLEAR     13  10  91 CALM      30.17R
CHARLEVOIX     CLEAR     16  14  91 CALM      30.26R
FRANKFORT      CLEAR     15  14  96 CALM      30.23S
GAYLORD        PTCLDY    10   7  87 CALM      30.18S
GRAYLING       CLOUDY    19  17  95 N3        30.19S
HARBOR SPRINGS CLEAR     13  10  88 CALM      30.22S
HOUGHTON LAKE  CLOUDY    20  16  84 NE6       30.19S WCI  12
MANISTEE       CLEAR     18  12  79 CALM      30.24R
OSCODA         CLOUDY    21  17  83 NW7       30.20S WCI  13
PELLSTON       PTCLDY     5   2  87 NW3       30.23S
ROGERS CITY    CLEAR     15  14  95 W5        30.22S WCI   8
TRAVERSE CITY  CLEAR     20  15  81 E3        30.23R
$$
MIZ007>008-015-190400-
EASTERN UPPER MICHIGAN

CITY           SKY/WX    TMP DP  RH WIND       PRES   REMARKS
KINROSS        PTCLDY    16  12  86 NE5       30.22S WCI   9
MACKINAC ISLAN PTCLDY    22  15  74 NE9       30.22R WCI  12
NEWBERRY       CLEAR     17  15  93 N6        30.21F WCI   9
S. S. MARIE    PTCLDY    15   8  73 N5        30.25R WCI   8
MUNISING         N/A     17  11  77 S8        30.25S WCI   7
$$
MIZ004>006-011>014-085-190400-
CENTRAL UPPER MICHIGAN

CITY           SKY/WX    TMP DP  RH WIND       PRES   REMARKS
MANISTIQUE     CLEAR     17  15  93 NW6       30.24S WCI   8
ESCANABA       CLEAR     16  12  86 W5        30.25S WCI   9
MENOMINEE      CLEAR     21  16  79 N5        30.25S WCI  15
SAWYER-GWINN   CLEAR     14  12  92 N3        30.22F
$$
MIZ001>003-009>011-084-190400-
WESTERN UPPER MICHIGAN

CITY           SKY/WX    TMP DP  RH WIND       PRES   REMARKS
IRON MOUNTAIN  FOG        8   5  87 CALM      30.23R VSB 1
HOUGHTON       CLEAR      8   8 100 N3        30.24S
COPPER HARBOR    N/A     18  13  80 W6        30.27S WCI  10
IRONWOOD       CLOUDY    14  12  92 CALM      30.22S
$$

ABBREVIATIONS USED IN REMARKS
   TC - TEMPERATURE IN CELSIUS
  WCI - WIND CHILL INDEX
   HX - HEAT INDEX
  VSB - VISIBILITY




USA.gov is the U.S. government's official web portal to all federal, state and local government web resources and services.